WXM80 ListenWXM80 Stop

You find our weather info also at:

UK Metoffice

WeatherCloud

Weather Underground

Northeastern Weather Network

AWEKAS

Citizen Weather Observer Program (CWOP)

HAMweather, WeatherForYou, PWS Weather


Weather Underground History page Text

Daily Summary for September 22, 2017 Units:  English    Metric   Both
« Previous Day
Next Day »
Daily Weekly Monthly Yearly Custom
  High: Low: Average:
Temperature: 84.6 °F 65.7 °F 72.8 °F
Dew Point: 68.2 °F 53.3 °F 60.4 °F
Humidity: 77 % 51 % 65 %
Wind Speed: 9.1 mph 0.0 mph 5.1 mph
Wind Gust: 15.0 mph - -
Wind:- - East
Pressure: 29.95 in 29.85 in -
Precipitation: 0.00 in    
Historical Graphs
 
 
Tabular Data for September 22, 2017
Time Temperature Dew Point Pressure Wind Wind Speed Wind Gust Humidity Rainfall Rate (Hourly)
00:04 70.1 °F 57.4 °F 29.94 in North 4.9 mph 11.5 mph 64 % 0.00 in
00:09 70.1 °F 57.4 °F 29.94 in NNE 6.0 mph 8.1 mph 64 % 0.00 in
00:14 70.0 °F 57.3 °F 29.94 in North 6.3 mph 11.5 mph 64 % 0.00 in
00:15 70.0 °F 57.3 °F 29.94 in NNE 5.7 mph 12.0 mph 64 % 0.00 in
00:20 70.0 °F 57.3 °F 29.94 in North 6.3 mph 10.4 mph 64 % 0.00 in
00:25 69.9 °F 56.7 °F 29.94 in NNE 6.3 mph 8.1 mph 63 % 0.00 in
00:31 69.9 °F 57.2 °F 29.94 in NNE 7.0 mph 12.0 mph 64 % 0.00 in
00:36 69.9 °F 57.6 °F 29.94 in NNE 7.0 mph 10.0 mph 65 % 0.00 in
00:41 69.8 °F 57.1 °F 29.94 in NNE 7.0 mph 13.0 mph 64 % 0.00 in
00:46 69.7 °F 57.0 °F 29.94 in NNE 7.0 mph 12.0 mph 64 % 0.00 in
00:51 69.7 °F 57.0 °F 29.95 in NNE 6.0 mph 12.0 mph 64 % 0.00 in
00:56 69.6 °F 56.9 °F 29.95 in NNE 7.0 mph 13.0 mph 64 % 0.00 in
01:01 69.6 °F 56.4 °F 29.95 in NNE 5.4 mph 12.7 mph 63 % 0.00 in
01:06 69.5 °F 56.8 °F 29.95 in North 5.6 mph 8.1 mph 64 % 0.00 in
01:11 69.5 °F 56.3 °F 29.95 in North 4.3 mph 9.2 mph 63 % 0.00 in
01:16 69.4 °F 56.7 °F 29.94 in NNE 6.8 mph 11.5 mph 64 % 0.00 in
01:21 69.4 °F 56.3 °F 29.94 in NNE 4.5 mph 10.4 mph 63 % 0.00 in
01:26 69.3 °F 56.2 °F 29.94 in NE 5.5 mph 11.5 mph 63 % 0.00 in
01:31 69.3 °F 56.2 °F 29.94 in North 5.6 mph 9.0 mph 63 % 0.00 in
01:36 69.3 °F 56.2 °F 29.94 in NNE 6.2 mph 10.4 mph 63 % 0.00 in
01:41 69.2 °F 56.1 °F 29.94 in NNE 6.0 mph 10.4 mph 63 % 0.00 in
01:46 69.2 °F 56.5 °F 29.94 in NE 8.2 mph 12.0 mph 64 % 0.00 in
01:51 69.1 °F 56.0 °F 29.94 in NNE 7.0 mph 10.4 mph 63 % 0.00 in
01:56 69.0 °F 55.4 °F 29.93 in NNE 5.2 mph 10.0 mph 62 % 0.00 in
02:01 69.0 °F 55.9 °F 29.93 in North 7.7 mph 11.0 mph 63 % 0.00 in
02:06 69.0 °F 55.4 °F 29.93 in NE 5.8 mph 9.2 mph 62 % 0.00 in
02:11 68.9 °F 55.8 °F 29.93 in NNE 5.5 mph 9.2 mph 63 % 0.00 in
02:16 68.9 °F 55.3 °F 29.93 in NNE 4.5 mph 9.2 mph 62 % 0.00 in
02:21 68.9 °F 55.3 °F 29.93 in NNW 6.8 mph 11.0 mph 62 % 0.00 in
02:26 68.8 °F 54.8 °F 29.93 in North 7.5 mph 12.7 mph 61 % 0.00 in
02:31 68.7 °F 55.2 °F 29.93 in NNW 7.6 mph 11.5 mph 62 % 0.00 in
02:36 68.6 °F 55.1 °F 29.92 in NNE 7.6 mph 13.0 mph 62 % 0.00 in
02:41 68.6 °F 55.1 °F 29.92 in North 8.1 mph 9.2 mph 62 % 0.00 in
02:46 68.5 °F 55.4 °F 29.92 in NNE 6.6 mph 13.8 mph 63 % 0.00 in
02:51 68.5 °F 55.0 °F 29.92 in NNE 4.3 mph 9.2 mph 62 % 0.00 in
02:56 68.4 °F 55.3 °F 29.92 in NNE 6.7 mph 9.0 mph 63 % 0.00 in
03:01 68.3 °F 54.8 °F 29.92 in NE 6.2 mph 10.4 mph 62 % 0.00 in
03:07 68.2 °F 55.1 °F 29.92 in NNE 6.8 mph 11.5 mph 63 % 0.00 in
03:12 68.1 °F 54.6 °F 29.92 in North 5.6 mph 9.2 mph 62 % 0.00 in
03:17 68.1 °F 54.6 °F 29.92 in NE 8.1 mph 12.7 mph 62 % 0.00 in
03:22 68.0 °F 54.5 °F 29.92 in North 8.7 mph 11.5 mph 62 % 0.00 in
03:27 67.9 °F 54.0 °F 29.92 in NNE 8.9 mph 13.8 mph 61 % 0.00 in
03:32 67.9 °F 54.8 °F 29.91 in NNE 4.1 mph 6.9 mph 63 % 0.00 in
03:35 67.9 °F 54.8 °F 29.91 in NNW 7.1 mph 14.0 mph 63 % 0.00 in
03:40 67.8 °F 53.9 °F 29.91 in North 4.9 mph 11.5 mph 61 % 0.00 in
03:45 67.8 °F 54.3 °F 29.91 in North 9.0 mph 15.0 mph 62 % 0.00 in
03:55 67.6 °F 54.1 °F 29.91 in NE 6.2 mph 9.2 mph 62 % 0.00 in
04:00 67.6 °F 54.1 °F 29.91 in NNW 7.7 mph 13.8 mph 62 % 0.00 in
04:05 67.5 °F 54.5 °F 29.91 in North 7.6 mph 10.4 mph 63 % 0.00 in
04:10 67.5 °F 54.9 °F 29.91 in NNE 5.3 mph 9.0 mph 64 % 0.00 in
04:15 67.4 °F 54.8 °F 29.91 in NNE 7.3 mph 13.0 mph 64 % 0.00 in
04:20 67.4 °F 54.8 °F 29.91 in NNE 5.6 mph 11.5 mph 64 % 0.00 in
04:25 67.4 °F 54.8 °F 29.91 in NNW 5.4 mph 6.9 mph 64 % 0.00 in
04:30 67.2 °F 55.5 °F 29.91 in North 3.4 mph 11.5 mph 66 % 0.00 in
04:35 67.1 °F 55.4 °F 29.91 in North 4.6 mph 9.2 mph 66 % 0.00 in
04:40 66.9 °F 54.7 °F 29.91 in NNE 7.1 mph 11.5 mph 65 % 0.00 in
04:45 66.8 °F 54.2 °F 29.92 in NE 7.7 mph 10.4 mph 64 % 0.00 in
04:50 66.8 °F 54.7 °F 29.91 in NNE 5.9 mph 8.1 mph 65 % 0.00 in
04:55 66.7 °F 54.6 °F 29.91 in NNW 8.5 mph 11.5 mph 65 % 0.00 in
05:01 66.7 °F 54.1 °F 29.92 in NNE 7.2 mph 12.7 mph 64 % 0.00 in
05:06 66.7 °F 54.6 °F 29.92 in NNE 7.0 mph 13.0 mph 65 % 0.00 in
05:11 66.7 °F 54.6 °F 29.92 in NNE 6.0 mph 13.0 mph 65 % 0.00 in
05:16 66.7 °F 54.6 °F 29.92 in NNE 6.0 mph 14.0 mph 65 % 0.00 in
05:21 66.7 °F 54.6 °F 29.92 in North 7.0 mph 12.0 mph 65 % 0.00 in
05:26 66.7 °F 54.6 °F 29.92 in North 5.0 mph 12.0 mph 65 % 0.00 in
05:31 66.7 °F 54.6 °F 29.92 in North 5.2 mph 10.4 mph 65 % 0.00 in
05:36 66.6 °F 54.5 °F 29.92 in North 3.0 mph 9.0 mph 65 % 0.00 in
05:41 66.6 °F 54.9 °F 29.92 in North 5.0 mph 12.0 mph 66 % 0.00 in
05:46 66.5 °F 54.4 °F 29.92 in North 6.0 mph 12.0 mph 65 % 0.00 in
05:51 66.5 °F 54.4 °F 29.92 in North 6.0 mph 12.0 mph 65 % 0.00 in
05:56 66.5 °F 54.3 °F 29.92 in North 7.0 mph 12.0 mph 65 % 0.00 in
06:01 66.4 °F 53.8 °F 29.92 in NNE 6.8 mph 10.4 mph 64 % 0.00 in
06:06 66.4 °F 54.3 °F 29.92 in North 5.0 mph 12.0 mph 65 % 0.00 in
06:11 66.3 °F 54.2 °F 29.92 in North 6.0 mph 10.0 mph 65 % 0.00 in
06:16 66.3 °F 54.2 °F 29.92 in North 6.0 mph 10.0 mph 65 % 0.00 in
06:21 66.2 °F 54.1 °F 29.92 in North 6.0 mph 8.0 mph 65 % 0.00 in
06:26 66.1 °F 54.0 °F 29.93 in NNE 5.0 mph 9.2 mph 65 % 0.00 in
06:31 66.1 °F 54.0 °F 29.93 in NNE 6.4 mph 10.4 mph 65 % 0.00 in
06:36 66.1 °F 54.0 °F 29.93 in North 4.2 mph 8.1 mph 65 % 0.00 in
06:41 66.0 °F 53.9 °F 29.93 in North 7.0 mph 11.5 mph 65 % 0.00 in
06:47 66.0 °F 54.3 °F 29.93 in North 4.5 mph 11.5 mph 66 % 0.00 in
06:52 65.9 °F 53.8 °F 29.93 in NNE 5.5 mph 10.4 mph 65 % 0.00 in
06:57 65.9 °F 53.8 °F 29.93 in North 7.5 mph 12.0 mph 65 % 0.00 in
07:02 65.9 °F 53.8 °F 29.93 in NNW 4.9 mph 9.2 mph 65 % 0.00 in
07:07 65.9 °F 53.4 °F 29.94 in North 7.5 mph 11.5 mph 64 % 0.00 in
07:12 65.9 °F 53.8 °F 29.94 in NNE 7.7 mph 12.7 mph 65 % 0.00 in
07:17 65.9 °F 53.4 °F 29.94 in NNE 7.4 mph 10.4 mph 64 % 0.00 in
07:22 65.9 °F 53.8 °F 29.94 in NNE 8.5 mph 11.5 mph 65 % 0.00 in
07:27 65.9 °F 53.8 °F 29.93 in North 4.1 mph 8.1 mph 65 % 0.00 in
07:32 66.0 °F 53.9 °F 29.93 in NE 8.0 mph 13.8 mph 65 % 0.00 in
07:37 66.0 °F 54.3 °F 29.93 in NNW 5.2 mph 9.2 mph 66 % 0.00 in
07:42 65.9 °F 53.4 °F 29.93 in NNW 8.3 mph 12.7 mph 64 % 0.00 in
07:47 65.9 °F 54.2 °F 29.93 in NNE 6.3 mph 8.1 mph 66 % 0.00 in
07:52 65.8 °F 53.3 °F 29.93 in North 5.2 mph 10.4 mph 64 % 0.00 in
07:57 65.8 °F 53.7 °F 29.93 in North 4.3 mph 8.1 mph 65 % 0.00 in
08:02 65.7 °F 54.0 °F 29.93 in North 4.9 mph 10.4 mph 66 % 0.00 in
08:07 65.7 °F 53.6 °F 29.93 in North 4.3 mph 9.2 mph 65 % 0.00 in
08:13 65.8 °F 53.7 °F 29.93 in North 4.8 mph 8.1 mph 65 % 0.00 in
08:18 65.8 °F 54.1 °F 29.94 in NNE 3.5 mph 9.2 mph 66 % 0.00 in
08:23 65.9 °F 54.6 °F 29.93 in East 4.9 mph 7.0 mph 67 % 0.00 in
08:28 66.0 °F 54.7 °F 29.93 in North 5.0 mph 9.2 mph 67 % 0.00 in
08:33 66.2 °F 54.5 °F 29.93 in North 6.6 mph 11.5 mph 66 % 0.00 in
08:38 66.4 °F 54.7 °F 29.93 in North 6.7 mph 10.4 mph 66 % 0.00 in
08:43 66.6 °F 54.9 °F 29.93 in North 3.9 mph 8.1 mph 66 % 0.00 in
08:48 66.7 °F 55.0 °F 29.93 in North 5.3 mph 9.2 mph 66 % 0.00 in
08:53 66.9 °F 54.7 °F 29.94 in NNE 3.9 mph 7.0 mph 65 % 0.00 in
08:58 67.0 °F 55.3 °F 29.93 in North 3.6 mph 5.8 mph 66 % 0.00 in
09:03 67.0 °F 54.8 °F 29.93 in NNE 6.9 mph 10.4 mph 65 % 0.00 in
09:08 67.1 °F 54.9 °F 29.93 in North 8.8 mph 12.7 mph 65 % 0.00 in
09:13 67.1 °F 54.9 °F 29.93 in NE 5.2 mph 9.2 mph 65 % 0.00 in
09:18 67.2 °F 55.5 °F 29.93 in NNW 5.7 mph 9.2 mph 66 % 0.00 in
09:23 67.4 °F 55.6 °F 29.93 in NNE 7.8 mph 12.0 mph 66 % 0.00 in
09:28 67.6 °F 55.4 °F 29.93 in North 5.8 mph 8.1 mph 65 % 0.00 in
09:33 67.8 °F 56.0 °F 29.93 in NNE 4.8 mph 9.2 mph 66 % 0.00 in
09:38 68.1 °F 55.5 °F 29.93 in NNW 5.5 mph 9.2 mph 64 % 0.00 in
09:43 68.3 °F 55.6 °F 29.93 in NE 7.0 mph 10.4 mph 64 % 0.00 in
09:48 68.5 °F 55.8 °F 29.93 in North 6.0 mph 10.4 mph 64 % 0.00 in
09:53 68.7 °F 56.0 °F 29.93 in North 7.1 mph 9.2 mph 64 % 0.00 in
09:58 68.9 °F 55.8 °F 29.93 in NE 5.7 mph 11.5 mph 63 % 0.00 in
10:04 69.1 °F 56.0 °F 29.93 in NNW 6.4 mph 8.1 mph 63 % 0.00 in
10:09 69.2 °F 55.6 °F 29.93 in NNE 5.6 mph 12.7 mph 62 % 0.00 in
10:14 69.3 °F 56.2 °F 29.93 in NNE 3.4 mph 11.5 mph 63 % 0.00 in
10:19 69.4 °F 57.1 °F 29.93 in North 7.3 mph 10.4 mph 65 % 0.00 in
10:24 69.6 °F 56.9 °F 29.93 in North 5.6 mph 9.2 mph 64 % 0.00 in
10:29 69.9 °F 56.7 °F 29.93 in NE 6.6 mph 11.5 mph 63 % 0.00 in
10:34 70.2 °F 57.4 °F 29.93 in North 5.5 mph 12.0 mph 64 % 0.00 in
10:39 70.7 °F 57.5 °F 29.92 in North 7.2 mph 13.8 mph 63 % 0.00 in
10:44 71.2 °F 57.5 °F 29.92 in NNE 7.8 mph 11.5 mph 62 % 0.00 in
10:49 71.4 °F 57.7 °F 29.92 in North 6.7 mph 10.4 mph 62 % 0.00 in
10:54 71.6 °F 57.4 °F 29.92 in North 4.6 mph 8.1 mph 61 % 0.00 in
10:59 71.8 °F 57.6 °F 29.92 in North 5.4 mph 9.2 mph 61 % 0.00 in
11:04 72.1 °F 57.9 °F 29.92 in North 6.6 mph 11.5 mph 61 % 0.00 in
11:09 72.7 °F 59.4 °F 29.92 in North 4.4 mph 9.2 mph 63 % 0.00 in
11:10 72.7 °F 59.4 °F 29.92 in NE 5.7 mph 12.0 mph 63 % 0.00 in
11:15 73.2 °F 58.9 °F 29.92 in NNE 6.5 mph 9.2 mph 61 % 0.00 in
11:20 73.7 °F 59.4 °F 29.92 in NNW 4.3 mph 10.4 mph 61 % 0.00 in
11:25 74.1 °F 59.3 °F 29.92 in NNE 5.6 mph 8.1 mph 60 % 0.00 in
11:30 74.4 °F 60.5 °F 29.91 in NNE 4.5 mph 5.8 mph 62 % 0.00 in
11:35 75.0 °F 60.6 °F 29.91 in North 5.7 mph 8.1 mph 61 % 0.00 in
11:40 75.6 °F 62.1 °F 29.91 in North 5.0 mph 8.1 mph 63 % 0.00 in
11:45 76.6 °F 63.1 °F 29.92 in North 2.5 mph 7.0 mph 63 % 0.00 in
11:50 77.3 °F 62.8 °F 29.92 in NNW 4.4 mph 9.2 mph 61 % 0.00 in
11:55 78.1 °F 62.1 °F 29.92 in NNW 3.5 mph 7.0 mph 58 % 0.00 in
12:00 78.7 °F 62.2 °F 29.92 in NNE 3.2 mph 11.5 mph 57 % 0.00 in
12:05 79.3 °F 62.2 °F 29.91 in NNE 2.9 mph 5.8 mph 56 % 0.00 in
12:10 79.7 °F 63.1 °F 29.91 in North 5.0 mph 10.0 mph 57 % 0.00 in
12:15 80.2 °F 63.1 °F 29.91 in NW 5.2 mph 5.8 mph 56 % 0.00 in
12:20 80.7 °F 64.1 °F 29.91 in NNE 3.0 mph 6.9 mph 57 % 0.00 in
12:25 81.2 °F 64.0 °F 29.91 in North 4.8 mph 6.9 mph 56 % 0.00 in
12:30 81.8 °F 65.1 °F 29.91 in NNW 2.0 mph 5.8 mph 57 % 0.00 in
12:35 82.4 °F 64.1 °F 29.91 in NNE 2.5 mph 4.6 mph 54 % 0.00 in
12:40 82.8 °F 63.9 °F 29.90 in NNE 3.1 mph 4.6 mph 53 % 0.00 in
12:45 82.5 °F 63.1 °F 29.91 in NNE 2.1 mph 8.1 mph 52 % 0.00 in
12:50 82.4 °F 62.5 °F 29.90 in NW 3.4 mph 6.9 mph 51 % 0.00 in
12:55 82.3 °F 64.0 °F 29.90 in North 1.7 mph 3.5 mph 54 % 0.00 in
13:00 82.6 °F 65.8 °F 29.89 in NNE 3.1 mph 5.0 mph 57 % 0.00 in
13:05 82.8 °F 65.0 °F 29.89 in NNW 2.9 mph 4.6 mph 55 % 0.00 in
13:10 83.2 °F 64.8 °F 29.89 in NW 2.2 mph 3.0 mph 54 % 0.00 in
13:15 83.3 °F 65.4 °F 29.89 in NNE 2.8 mph 8.1 mph 55 % 0.00 in
13:21 83.4 °F 65.5 °F 29.89 in NNE 5.0 mph 8.0 mph 55 % 0.00 in
13:26 83.6 °F 66.8 °F 29.89 in NNE 2.0 mph 8.0 mph 57 % 0.00 in
13:31 83.7 °F 65.8 °F 29.89 in North 3.0 mph 9.0 mph 55 % 0.00 in
13:36 83.6 °F 66.2 °F 29.88 in NNE 3.0 mph 7.0 mph 56 % 0.00 in
13:41 83.7 °F 67.8 °F 29.88 in NNE 5.0 mph 8.0 mph 59 % 0.00 in
13:46 84.1 °F 68.2 °F 29.88 in North 2.0 mph 9.0 mph 59 % 0.00 in
13:51 84.2 °F 67.3 °F 29.88 in North 3.0 mph 9.0 mph 57 % 0.00 in
13:56 84.5 °F 68.1 °F 29.88 in NNW 4.3 mph 6.9 mph 58 % 0.00 in
14:01 84.6 °F 67.2 °F 29.88 in NNE 5.4 mph 9.2 mph 56 % 0.00 in
14:06 84.2 °F 65.8 °F 29.88 in North 3.0 mph 9.0 mph 54 % 0.00 in
14:11 84.1 °F 66.7 °F 29.88 in North 1.0 mph 8.0 mph 56 % 0.00 in
14:16 83.8 °F 66.4 °F 29.88 in North 3.0 mph 9.0 mph 56 % 0.00 in
14:21 83.3 °F 67.5 °F 29.88 in NNE 5.1 mph 11.0 mph 59 % 0.00 in
14:26 82.7 °F 67.4 °F 29.87 in NNE 2.0 mph 8.0 mph 60 % 0.00 in
14:31 82.6 °F 67.3 °F 29.87 in North 6.0 mph 9.0 mph 60 % 0.00 in
14:36 82.6 °F 66.8 °F 29.87 in NE 3.9 mph 10.0 mph 59 % 0.00 in
14:41 82.5 °F 67.7 °F 29.87 in North 3.3 mph 6.9 mph 61 % 0.00 in
14:46 82.5 °F 67.2 °F 29.87 in North 4.8 mph 8.1 mph 60 % 0.00 in
14:51 82.6 °F 67.3 °F 29.87 in NW 2.0 mph 4.0 mph 60 % 0.00 in
14:57 82.9 °F 67.6 °F 29.87 in NNW 3.1 mph 5.0 mph 60 % 0.00 in
15:02 83.0 °F 67.2 °F 29.86 in NNE 4.6 mph 8.1 mph 59 % 0.00 in
15:07 83.2 °F 66.9 °F 29.86 in NNW 4.9 mph 8.1 mph 58 % 0.00 in
15:12 83.2 °F 67.4 °F 29.86 in NE 4.9 mph 8.1 mph 59 % 0.00 in
15:17 83.1 °F 67.8 °F 29.86 in North 2.9 mph 5.0 mph 60 % 0.00 in
15:22 83.0 °F 67.7 °F 29.86 in NNE 4.4 mph 8.1 mph 60 % 0.00 in
15:27 82.7 °F 67.4 °F 29.86 in North 1.1 mph 3.5 mph 60 % 0.00 in
15:32 82.4 °F 68.1 °F 29.86 in NNE 2.5 mph 3.5 mph 62 % 0.00 in
15:37 82.1 °F 67.8 °F 29.86 in NE 3.6 mph 5.8 mph 62 % 0.00 in
15:42 81.7 °F 67.4 °F 29.86 in East 4.6 mph 8.1 mph 62 % 0.00 in
15:47 81.2 °F 67.9 °F 29.86 in NNE 3.2 mph 5.8 mph 64 % 0.00 in
15:52 80.8 °F 67.9 °F 29.86 in North 4.2 mph 6.0 mph 65 % 0.00 in
15:57 80.4 °F 68.0 °F 29.86 in NNE 5.7 mph 9.2 mph 66 % 0.00 in
16:02 79.9 °F 67.5 °F 29.85 in NNE 4.6 mph 5.8 mph 66 % 0.00 in
16:07 79.6 °F 67.2 °F 29.85 in North 4.7 mph 6.9 mph 66 % 0.00 in
16:12 79.3 °F 67.4 °F 29.85 in NE 2.1 mph 3.5 mph 67 % 0.00 in
16:17 79.2 °F 67.7 °F 29.85 in NNE 5.8 mph 8.1 mph 68 % 0.00 in
16:23 79.0 °F 67.5 °F 29.85 in NNE 4.1 mph 9.2 mph 68 % 0.00 in
16:28 78.7 °F 67.7 °F 29.85 in NNE 5.7 mph 8.0 mph 69 % 0.00 in
16:33 78.4 °F 67.0 °F 29.85 in NNE 7.6 mph 11.5 mph 68 % 0.00 in
16:38 78.3 °F 66.9 °F 29.85 in NNE 2.2 mph 3.5 mph 68 % 0.00 in
16:43 78.2 °F 67.2 °F 29.85 in NNE 1.5 mph 3.5 mph 69 % 0.00 in
16:48 78.0 °F 67.0 °F 29.85 in NNE 1.7 mph 5.8 mph 69 % 0.00 in
16:53 77.9 °F 67.3 °F 29.85 in North 3.6 mph 6.9 mph 70 % 0.00 in
16:58 77.7 °F 66.7 °F 29.85 in NNE 6.1 mph 9.2 mph 69 % 0.00 in
17:03 77.6 °F 67.0 °F 29.85 in NNW 4.0 mph 8.1 mph 70 % 0.00 in
17:08 77.6 °F 67.0 °F 29.85 in NNE 4.3 mph 9.2 mph 70 % 0.00 in
17:13 77.5 °F 66.9 °F 29.85 in NNE 3.5 mph 3.5 mph 70 % 0.00 in
17:18 77.5 °F 66.5 °F 29.85 in NE 2.4 mph 3.5 mph 69 % 0.00 in
17:23 77.4 °F 66.8 °F 29.85 in NE 3.5 mph 3.5 mph 70 % 0.00 in
17:28 77.4 °F 66.4 °F 29.85 in NE 4.1 mph 10.4 mph 69 % 0.00 in
17:33 77.3 °F 66.7 °F 29.85 in NNE 5.4 mph 9.2 mph 70 % 0.00 in
17:38 77.3 °F 66.7 °F 29.86 in NNE 3.6 mph 3.6 mph 70 % 0.00 in
17:43 77.1 °F 66.6 °F 29.86 in NNE 7.4 mph 12.7 mph 70 % 0.00 in
17:48 77.0 °F 66.0 °F 29.86 in NE 8.5 mph 12.7 mph 69 % 0.00 in
17:53 76.9 °F 66.0 °F 29.86 in NE 5.1 mph 13.8 mph 69 % 0.00 in
17:58 76.9 °F 66.0 °F 29.86 in North 4.7 mph 9.0 mph 69 % 0.00 in
18:03 76.8 °F 66.3 °F 29.86 in East 5.0 mph 8.1 mph 70 % 0.00 in
18:08 76.7 °F 66.2 °F 29.86 in ENE 2.7 mph 3.5 mph 70 % 0.00 in
18:13 76.6 °F 66.9 °F 29.86 in NE 1.8 mph 4.6 mph 72 % 0.00 in
18:18 76.5 °F 66.8 °F 29.86 in North 2.2 mph 8.0 mph 72 % 0.00 in
18:24 76.4 °F 66.7 °F 29.86 in NNE 2.9 mph 5.8 mph 72 % 0.00 in
18:29 76.2 °F 66.5 °F 29.86 in North 2.8 mph 5.8 mph 72 % 0.00 in
18:34 76.1 °F 66.8 °F 29.86 in ENE 2.6 mph 3.5 mph 73 % 0.00 in
18:39 76.0 °F 66.7 °F 29.86 in NE 1.8 mph 4.6 mph 73 % 0.00 in
18:44 75.9 °F 66.6 °F 29.86 in NNE 2.4 mph 3.5 mph 73 % 0.00 in
18:49 75.8 °F 66.9 °F 29.86 in North 2.3 mph 3.5 mph 74 % 0.00 in
18:54 75.6 °F 67.1 °F 29.86 in NNE 1.6 mph 3.5 mph 75 % 0.00 in
18:59 75.5 °F 67.4 °F 29.86 in NE 1.4 mph 4.6 mph 76 % 0.00 in
19:04 75.3 °F 67.2 °F 29.86 in ENE 2.0 mph 3.5 mph 76 % 0.00 in
19:06 75.3 °F 67.2 °F 29.86 in NNE 1.1 mph 3.5 mph 76 % 0.00 in
19:11 75.2 °F 67.5 °F 29.87 in Calm   4.0 mph 77 % 0.00 in
19:16 75.1 °F 67.4 °F 29.87 in NE 1.0 mph 4.0 mph 77 % 0.00 in
19:21 74.9 °F 66.8 °F 29.87 in ENE 3.3 mph 3.5 mph 76 % 0.00 in
19:26 74.8 °F 66.3 °F 29.87 in NNE 3.0 mph 8.0 mph 75 % 0.00 in
19:31 74.7 °F 65.5 °F 29.88 in NE 5.0 mph 15.0 mph 73 % 0.00 in
19:35 74.7 °F 65.1 °F 29.88 in North 4.3 mph 7.0 mph 72 % 0.00 in
19:40 74.7 °F 65.1 °F 29.88 in NE 5.0 mph 9.0 mph 72 % 0.00 in
19:46 74.7 °F 65.1 °F 29.88 in NE 3.0 mph 10.0 mph 72 % 0.00 in
19:51 74.8 °F 66.3 °F 29.88 in ENE 3.0 mph 8.0 mph 75 % 0.00 in
19:55 74.7 °F 66.2 °F 29.88 in ENE 3.0 mph 8.0 mph 75 % 0.00 in
20:01 74.6 °F 66.1 °F 29.88 in NE 2.8 mph 3.5 mph 75 % 0.00 in
20:06 74.5 °F 66.1 °F 29.88 in ENE 2.4 mph 3.5 mph 75 % 0.00 in
20:11 74.4 °F 66.3 °F 29.88 in NE 1.0 mph 5.0 mph 76 % 0.00 in
20:16 74.3 °F 66.2 °F 29.88 in NE 1.0 mph 5.0 mph 76 % 0.00 in
20:20 74.1 °F 66.1 °F 29.88 in NNE 3.0 mph 6.0 mph 76 % 0.00 in
20:25 73.9 °F 65.9 °F 29.88 in NNE 3.0 mph 7.0 mph 76 % 0.00 in
20:30 73.7 °F 66.0 °F 29.88 in NNE 3.0 mph 7.0 mph 77 % 0.00 in
20:35 73.5 °F 65.8 °F 29.88 in NE 4.4 mph 6.9 mph 77 % 0.00 in
20:41 73.2 °F 64.4 °F 29.88 in NNE 6.0 mph 12.0 mph 74 % 0.00 in
20:46 73.0 °F 63.8 °F 29.89 in NNE 6.0 mph 12.0 mph 73 % 0.00 in
20:50 72.9 °F 63.3 °F 29.89 in NE 6.0 mph 13.0 mph 72 % 0.00 in
20:55 72.8 °F 63.6 °F 29.89 in East 4.6 mph 6.9 mph 73 % 0.00 in
21:00 72.8 °F 64.0 °F 29.89 in North 2.8 mph 6.9 mph 74 % 0.00 in
21:05 72.7 °F 63.9 °F 29.89 in NNE 8.0 mph 14.0 mph 74 % 0.00 in
21:11 72.6 °F 63.1 °F 29.90 in NNE 8.0 mph 14.0 mph 72 % 0.00 in
21:15 72.5 °F 62.2 °F 29.89 in NNE 7.0 mph 14.0 mph 70 % 0.00 in
21:21 72.4 °F 62.1 °F 29.89 in NNE 9.0 mph 15.0 mph 70 % 0.00 in
21:26 72.4 °F 61.7 °F 29.90 in NNE 6.0 mph 13.0 mph 69 % 0.00 in
21:30 72.4 °F 62.5 °F 29.90 in NE 6.0 mph 9.0 mph 71 % 0.00 in
21:35 72.3 °F 62.0 °F 29.89 in NNE 5.0 mph 14.0 mph 70 % 0.00 in
21:40 72.2 °F 62.3 °F 29.90 in NNE 7.0 mph 12.0 mph 71 % 0.00 in
21:45 72.2 °F 61.9 °F 29.90 in NNE 6.0 mph 13.0 mph 70 % 0.00 in
21:55 72.1 °F 62.6 °F 29.89 in NNE 6.0 mph 12.0 mph 72 % 0.00 in
22:01 72.0 °F 62.1 °F 29.89 in NNE 7.9 mph 11.5 mph 71 % 0.00 in
22:06 71.9 °F 61.6 °F 29.89 in NE 6.9 mph 11.5 mph 70 % 0.00 in
22:11 71.8 °F 61.9 °F 29.90 in NNE 7.2 mph 10.4 mph 71 % 0.00 in
22:16 71.7 °F 61.4 °F 29.89 in NNE 3.9 mph 9.2 mph 70 % 0.00 in
22:21 71.6 °F 61.7 °F 29.89 in North 6.8 mph 10.4 mph 71 % 0.00 in
22:26 71.6 °F 61.3 °F 29.90 in NNE 5.1 mph 10.4 mph 70 % 0.00 in
22:31 71.5 °F 61.6 °F 29.90 in NE 4.8 mph 12.7 mph 71 % 0.00 in
22:36 71.5 °F 61.6 °F 29.90 in North 7.6 mph 13.0 mph 71 % 0.00 in
22:41 71.4 °F 61.1 °F 29.90 in NNE 7.1 mph 11.0 mph 70 % 0.00 in
22:46 71.4 °F 61.5 °F 29.90 in NNE 5.8 mph 11.5 mph 71 % 0.00 in
22:51 71.3 °F 61.4 °F 29.90 in NNE 8.6 mph 11.5 mph 71 % 0.00 in
22:56 71.2 °F 60.9 °F 29.90 in NNE 6.0 mph 9.2 mph 70 % 0.00 in
23:01 71.2 °F 61.3 °F 29.90 in NNE 6.9 mph 9.2 mph 71 % 0.00 in
23:06 71.1 °F 61.2 °F 29.90 in NNE 4.5 mph 7.0 mph 71 % 0.00 in
23:11 71.0 °F 61.1 °F 29.90 in NNE 5.6 mph 6.9 mph 71 % 0.00 in
23:16 71.0 °F 61.1 °F 29.90 in NNE 6.0 mph 11.5 mph 71 % 0.00 in
23:21 70.9 °F 61.4 °F 29.90 in NE 5.9 mph 7.0 mph 72 % 0.00 in
23:26 70.9 °F 61.4 °F 29.90 in NNE 9.1 mph 14.0 mph 72 % 0.00 in
23:31 70.9 °F 61.4 °F 29.90 in NE 8.6 mph 11.5 mph 72 % 0.00 in
23:36 70.8 °F 61.7 °F 29.90 in NNW 5.4 mph 9.0 mph 73 % 0.00 in
23:42 70.8 °F 61.7 °F 29.91 in NNE 7.0 mph 12.7 mph 73 % 0.00 in
23:47 70.7 °F 61.6 °F 29.91 in NNW 6.9 mph 9.2 mph 73 % 0.00 in
23:52 70.7 °F 61.6 °F 29.91 in North 7.8 mph 11.5 mph 73 % 0.00 in
23:57 70.5 °F 61.4 °F 29.90 in NNE 6.9 mph 12.7 mph 73 % 0.00 in
Crab Meadow Weather
Compliments of Weather Underground - 3 mb

Script developed by  Jim McMurry - jmcmurry@mwt.net Adapted for the template by  Wim van der Kuil - Leuven-Template.eu

Weather Terms: Flood Stage - The level or stage at which a stream overflows its banks or the stage at which the overflow of a stream begins to cause damage.